GFSNW_925_temp_099.txt.gz
Temp
6 6 6 6 6 6 6 7 7 6 6 6 7 9 8 7 11 12 13 14 15 15 15 15 15 15 13 13 14 12 13 14 12 14 16 15 15 16 18 19 18 19 19 15
6 6 6 6 6 6 6 7 5 5 7 8 8 7 8 8 11 13 13 14 15 15 15 14 15 15 14 14 15 15 15 15 14 15 16 17 17 17 18 18 17 16 18 16
6 5 5 5 5 6 7 7 7 5 6 8 10 8 8 10 11 12 13 14 15 15 15 15 15 15 14 14 15 12 15 15 14 15 14 14 15 17 17 17 18 19 18 16
6 6 6 6 6 6 6 8 8 8 8 10 10 8 8 12 11 13 14 15 15 16 15 15 15 15 15 15 14 15 17 12 11 15 15 15 16 16 17 15 18 17 18 17
6 7 7 7 6 5 6 8 9 9 9 9 8 7 11 12 12 12 13 14 15 16 16 16 15 16 16 16 16 16 16 13 14 15 16 15 15 16 16 17 18 18 18 17
6 7 8 7 6 6 7 8 10 11 7 7 10 11 12 12 12 13 13 14 16 15 13 15 16 16 16 16 16 16 16 14 14 14 15 15 16 15 15 15 16 18 17 17
7 7 8 8 6 8 10 9 12 12 8 8 11 12 12 12 12 12 13 13 15 12 15 16 16 16 16 16 15 15 16 15 15 14 15 15 14 14 14 15 15 16 16 16
9 7 7 7 7 8 9 8 11 13 9 10 10 11 12 11 12 11 11 11 12 13 14 16 15 15 15 15 14 15 16 16 15 15 16 15 15 15 15 15 16 16 16 16
9 8 7 7 7 8 8 8 8 12 11 10 10 11 11 12 12 13 11 11 12 12 15 15 14 15 14 14 14 14 15 16 16 14 14 15 16 15 15 15 16 15 15 15
9 9 8 8 8 10 9 6 8 11 11 8 8 11 12 11 12 13 12 12 13 12 15 14 14 15 13 14 14 14 15 15 15 15 15 16 16 14 15 15 16 15 15 15
8 9 9 9 10 10 10 6 7 9 10 7 7 6 10 10 12 14 12 12 13 14 14 14 15 15 14 14 14 14 15 14 14 15 14 14 15 13 15 15 15 15 15 14
8 8 9 9 9 10 10 8 6 6 9 7 5 4 4 5 6 10 11 12 13 14 14 14 14 14 13 14 15 13 13 15 15 15 16 14 15 15 14 15 15 14 14 13
8 8 8 9 9 10 10 7 6 8 9 7 7 8 5 4 4 4 11 12 11 11 10 14 14 13 14 14 15 14 14 14 14 13 16 14 14 13 13 13 14 14 14 12
8 8 8 9 9 10 9 8 7 7 10 11 8 5 6 4 4 4 5 7 8 10 11 14 14 13 12 14 13 13 15 13 14 14 15 13 13 14 14 12 12 12 11 11
8 8 8 8 9 9 9 8 7 7 8 10 8 6 5 5 5 5 5 7 10 11 12 13 13 12 11 12 10 12 14 14 14 16 17 16 16 14 13 12 11 11 10 9
7 7 7 8 8 8 9 9 7 7 6 8 8 6 6 6 6 7 7 7 9 10 12 12 11 8 10 12 13 15 16 15 16 17 14 14 11 14 13 12 11 10 10 10
6 7 7 7 8 8 8 8 6 7 7 8 6 7 6 5 6 7 8 7 8 9 10 10 11 9 8 11 12 16 15 14 14 12 11 10 10 11 11 11 10 8 8 8
6 6 7 7 7 7 7 6 6 6 6 7 6 6 6 5 8 9 6 8 8 8 9 7 9 8 8 9 13 14 13 12 12 11 12 11 12 10 10 9 8 8 7 7
6 6 6 7 7 8 5 5 5 6 6 8 6 7 8 5 6 7 7 7 9 6 8 9 8 9 8 11 13 14 11 11 11 11 9 9 9 9 8 8 8 8 8 8
5 6 7 7 5 5 6 5 7 6 6 5 7 7 7 7 7 7 8 7 9 7 9 6 6 9 10 11 13 13 12 11 11 8 7 7 8 8 8 8 8 8 8 7
6 7 7 3 4 5 7 7 7 7 6 7 7 7 6 5 7 9 7 7 7 7 8 7 9 9 10 11 12 11 11 10 10 10 10 9 10 9 8 8 8 7 7 7
6 6 5 4 5 6 5 7 6 5 8 5 5 5 7 5 6 8 5 7 5 7 6 6 7 11 10 7 8 9 9 9 9 9 9 9 9 9 8 8 7 6 6 6
6 5 4 5 5 5 6 6 7 6 6 4 4 5 6 4 5 7 6 5 6 6 6 7 9 10 7 7 7 7 8 8 8 7 7 7 7 6 6 5 5 5 5 4
4 4 5 5 6 6 8 9 9 7 6 4 6 5 7 7 5 7 6 7 6 6 6 7 10 10 9 6 6 6 7 7 7 6 6 6 5 4 4 4 3 3 3 3
4 4 5 5 7 5 4 3 5 4 6 5 5 5 7 5 5 6 5 4 5 7 8 9 8 6 5 5 5 6 6 6 6 6 5 4 5 4 4 3 3 3 2 2
2 3 4 4 4 5 3 3 4 4 5 5 6 5 5 6 6 5 5 6 7 9 6 7 4 5 4 5 5 5 6 6 5 4 3 3 4 4 4 2 1 1 1 1
3 3 4 5 4 6 6 6 6 6 5 6 5 5 7 4 5 5 7 6 9 7 6 4 4 4 4 5 4 4 4 5 5 3 2 2 1 1 1 2 1 -0 -1 -1

GFSNW_925_temp_102.txt.gz
Temp
6 6 6 6 7 7 7 8 6 6 8 6 7 8 8 7 11 13 13 14 15 15 15 14 14 13 13 14 12 10 12 11 12 14 15 15 14 16 16 13 15 14 12 12
6 6 6 6 6 6 8 6 5 6 7 8 8 7 8 9 11 13 13 14 15 15 15 14 15 15 14 15 14 13 14 13 12 14 14 15 16 16 17 16 14 13 12 12
6 6 6 6 6 7 7 7 6 6 7 8 10 8 8 11 12 13 14 15 16 16 15 16 15 14 14 14 15 13 13 13 12 11 13 13 14 15 16 14 12 14 13 14
6 6 7 6 6 7 7 9 8 8 8 10 9 9 9 13 12 14 14 15 16 16 15 15 15 15 15 15 16 15 14 11 8 14 15 15 15 15 15 14 16 13 14 15
7 7 7 7 6 6 7 9 9 10 9 9 9 8 11 13 13 12 14 15 16 15 14 15 15 16 15 14 17 16 15 11 13 14 15 15 13 14 15 15 16 16 15 15
8 8 7 7 6 7 8 9 11 11 8 8 11 11 12 12 13 13 13 14 14 13 13 14 15 15 15 15 14 14 14 12 11 12 13 13 12 13 14 15 14 16 14 15
8 8 8 7 7 8 10 10 11 11 8 9 11 12 12 12 11 12 13 12 14 12 13 13 17 15 15 15 14 14 14 14 12 10 12 11 13 14 14 14 15 15 15 15
9 9 8 8 8 7 8 9 9 11 9 9 11 12 12 12 12 11 12 11 11 11 12 14 14 14 14 14 14 14 14 13 13 10 11 15 14 14 14 14 14 16 14 13
9 10 9 8 7 7 7 8 8 9 10 8 11 12 12 12 12 12 12 11 12 11 12 14 13 12 14 14 14 15 14 14 12 10 12 14 14 14 15 15 13 14 15 13
8 9 9 8 7 8 7 8 8 8 9 8 8 10 10 11 12 11 12 12 13 12 12 12 11 12 13 12 14 14 13 13 12 12 11 13 13 13 14 13 13 13 14 13
8 9 9 9 9 8 8 7 7 7 8 7 7 7 9 10 10 12 11 11 11 12 12 12 12 12 12 12 14 14 13 12 11 12 12 10 13 13 13 12 13 13 13 13
7 8 8 9 9 9 9 8 8 7 6 5 5 5 5 5 5 6 10 11 11 10 10 11 12 11 11 12 11 13 10 13 12 13 12 13 13 13 13 13 12 13 11 12
7 8 9 9 10 10 9 8 8 8 6 6 6 7 5 5 5 5 7 9 9 10 8 10 10 11 11 10 11 14 12 12 11 12 13 12 12 12 13 13 13 12 11 11
7 8 9 9 10 10 9 8 8 7 8 7 6 6 6 5 5 5 5 6 8 8 8 10 10 11 11 10 10 10 11 11 11 11 12 13 12 11 10 11 11 11 10 10
7 8 9 9 9 9 9 9 8 7 7 7 6 6 6 5 6 6 6 6 7 8 8 9 9 9 9 9 8 8 10 10 10 10 12 11 13 10 11 9 9 9 8 8
7 7 8 8 8 9 8 7 7 8 7 5 6 6 6 6 6 7 7 7 7 6 8 8 8 7 7 7 8 11 11 12 12 13 14 11 11 12 11 9 8 8 8 7
7 7 7 7 8 8 9 8 8 8 7 6 5 5 5 5 6 6 6 6 6 6 6 6 7 6 6 7 7 12 12 11 11 10 9 10 11 10 9 9 8 9 8 8
6 6 7 7 7 7 7 7 7 7 7 6 4 4 5 5 6 6 5 5 5 5 6 5 6 5 5 5 9 10 12 11 11 9 10 10 8 8 8 8 6 6 6 5
6 6 6 7 7 7 6 6 6 7 6 5 4 5 5 4 5 5 5 5 6 4 5 5 6 5 5 7 9 10 9 9 9 9 7 8 7 7 6 6 6 5 5 5
5 6 6 6 5 5 5 5 5 4 5 4 4 6 4 5 5 5 6 5 5 4 5 3 4 6 8 9 9 9 9 8 8 7 5 6 6 6 6 6 5 5 6 6
5 5 5 5 5 5 5 5 4 5 4 4 4 4 3 4 5 6 5 4 4 3 5 4 5 5 6 8 10 9 9 8 8 7 7 6 6 6 6 5 5 6 6 5
7 6 5 5 4 4 4 4 4 4 5 4 3 3 5 3 4 6 4 4 3 3 4 3 4 7 8 7 8 8 7 7 7 7 6 6 6 6 6 5 5 6 6 6
6 5 3 3 3 2 3 3 3 4 4 3 2 2 3 3 3 5 4 3 3 4 2 4 5 7 6 5 5 6 6 6 6 6 6 7 6 8 6 4 6 6 5 5
4 4 5 4 5 4 5 5 4 3 3 3 4 3 3 4 3 4 3 5 5 2 2 4 5 7 6 4 4 5 5 5 5 4 4 4 4 4 5 5 5 4 3 4
3 3 5 5 4 3 2 1 2 2 4 3 3 2 4 3 4 4 3 3 2 4 4 4 3 4 4 3 3 4 4 4 3 4 3 2 3 3 3 4 4 3 3 3
2 3 4 4 2 3 1 0 1 2 4 3 2 2 2 3 5 2 2 2 2 4 3 2 0 3 3 3 3 3 4 4 3 2 2 3 3 3 3 3 2 2 2 1
3 3 3 3 2 3 3 3 3 4 3 2 2 3 4 2 1 2 3 3 5 4 2 1 2 2 2 2 3 2 3 3 2 2 2 2 3 3 2 -0 1 1 0 -0

GFSNW_925_temp_105.txt.gz
Temp
6 6 6 6 7 7 8 6 5 7 7 4 7 7 7 9 10 12 12 13 13 13 14 13 11 12 12 11 11 11 11 11 10 13 15 14 13 13 15 11 14 11 10 12
6 7 7 6 7 6 6 4 5 7 7 5 6 8 9 9 11 12 12 13 14 15 14 13 14 13 13 13 13 13 13 10 10 12 12 13 13 14 15 14 11 11 10 12
7 7 7 7 7 7 7 4 3 4 5 6 7 8 8 11 11 12 13 13 14 15 14 14 14 13 14 14 14 13 13 11 11 9 11 12 12 14 13 13 10 12 10 11
7 7 7 7 7 7 6 5 5 6 5 7 7 8 8 11 11 12 12 14 13 13 12 13 14 14 14 14 15 15 12 10 7 13 14 13 12 12 13 13 13 12 11 13
8 8 8 8 7 7 7 6 6 7 8 8 8 8 10 11 11 11 11 11 12 11 11 12 12 13 12 12 13 14 12 9 12 12 13 12 12 12 13 14 14 13 12 13
8 8 8 8 8 7 7 8 9 7 7 6 7 9 11 11 11 12 11 11 12 11 11 10 10 13 12 13 13 12 13 10 9 10 12 12 11 12 12 13 13 14 12 13
9 9 8 8 8 7 6 8 9 7 7 7 9 11 11 11 11 11 11 10 11 12 10 11 13 14 13 12 12 12 12 12 9 8 10 10 12 13 13 13 14 13 13 13
9 10 9 9 8 7 6 8 7 7 6 8 8 10 11 11 11 11 11 10 10 9 10 12 12 11 13 13 13 13 11 11 11 9 7 13 12 13 13 14 13 14 11 10
8 10 9 9 9 8 7 7 7 6 6 6 8 9 10 9 9 10 11 11 10 10 10 11 12 10 12 12 12 13 13 11 10 9 10 12 13 13 14 14 11 13 11 10
8 9 10 9 9 8 8 8 7 6 5 5 6 7 8 9 9 8 10 11 11 11 9 10 9 10 12 11 12 12 11 11 10 10 8 11 13 12 13 13 12 12 11 10
7 8 9 9 9 9 9 8 7 7 4 4 5 6 7 7 7 8 9 9 9 9 10 9 9 10 10 10 11 13 11 9 9 10 10 10 11 12 12 11 12 12 11 10
7 8 8 8 9 10 9 8 8 7 5 4 5 5 5 5 5 4 7 8 9 8 6 7 8 9 8 9 9 11 10 10 10 10 10 11 10 12 12 10 11 11 10 9
7 7 8 9 9 10 10 9 8 8 3 4 4 5 6 5 5 5 6 7 6 7 6 7 8 9 7 8 7 10 10 9 10 11 11 10 10 11 11 12 11 10 9 8
7 8 8 9 10 10 9 9 8 8 5 4 5 6 6 6 6 5 5 5 6 6 5 7 7 9 8 8 8 8 9 9 9 9 10 12 11 9 9 10 9 9 9 9
7 8 8 9 9 9 9 9 8 8 7 5 4 5 6 6 6 6 6 5 5 5 6 7 8 6 7 6 6 5 8 9 9 9 9 10 10 9 8 8 8 8 7 7
7 8 8 8 8 8 8 5 8 8 7 3 4 5 5 6 6 6 6 5 4 4 5 6 5 5 6 5 6 8 7 8 10 10 10 9 12 9 8 8 7 7 6 6
7 7 7 8 8 8 7 6 8 8 8 3 2 3 4 5 5 4 4 5 3 4 3 5 5 5 5 4 7 9 9 8 8 10 9 10 10 10 7 7 7 8 7 7
6 7 7 7 7 7 7 7 7 7 7 4 0 1 3 4 3 4 2 4 3 3 4 3 4 4 3 4 6 8 9 9 8 7 9 10 8 7 7 6 5 5 5 4
6 6 6 6 7 6 6 6 6 6 6 2 1 2 3 3 3 2 3 2 4 3 4 3 4 4 5 7 7 7 7 8 9 7 7 7 7 6 6 5 5 5 4 4
5 5 6 5 6 5 5 5 4 2 3 2 2 2 3 3 3 3 4 3 4 2 4 3 3 4 7 8 9 8 7 7 7 6 5 5 6 5 5 6 6 5 5 4
5 4 4 4 5 5 3 2 2 3 2 2 2 2 2 2 3 4 4 3 2 1 4 4 2 4 6 8 7 8 10 7 7 8 8 7 7 6 5 4 4 4 5 4
7 6 5 5 3 1 2 1 2 3 3 1 2 2 2 2 2 4 3 3 1 3 3 2 2 5 6 6 5 5 5 6 6 5 6 5 5 5 5 5 4 5 6 6
6 5 3 1 0 1 1 3 2 -0 1 0 0 1 2 2 2 2 2 1 2 3 -0 3 4 4 6 5 4 3 4 5 5 5 5 5 5 6 5 4 5 6 5 5
3 4 3 2 2 2 3 3 2 1 -0 1 1 0 2 2 2 3 0 3 3 -0 -0 3 3 4 4 3 3 3 4 5 4 4 4 4 4 4 5 6 5 5 3 4
4 3 4 4 3 0 0 1 -0 -0 1 2 2 0 2 1 2 3 1 1 1 2 3 3 2 3 1 3 2 2 3 3 3 3 3 2 3 3 2 4 4 4 3 3
2 2 3 3 2 2 0 -3 1 -1 2 0 0 0 -1 1 1 0 1 -0 1 3 1 3 0 2 2 2 2 2 2 2 2 2 1 2 2 2 2 2 3 3 3 2
3 3 3 2 0 2 1 1 2 1 1 0 -0 0 3 0 -2 0 1 1 2 1 1 0 1 1 1 1 2 2 2 2 2 1 2 2 3 3 1 -1 1 1 1 1

GFSNW_925_temp_111.txt.gz
Temp
7 7 8 9 9 9 9 5 5 11 10 5 3 6 7 8 9 10 10 10 13 12 11 10 10 10 11 12 12 11 10 11 10 12 13 13 12 12 13 11 12 10 10 11
7 7 7 9 10 10 8 3 3 10 9 5 4 6 8 8 10 10 11 12 12 13 12 12 11 11 12 11 11 11 11 9 9 12 12 12 12 13 13 12 11 10 10 12
8 8 7 8 10 10 9 3 4 4 3 4 6 5 7 9 10 11 10 11 12 12 11 11 12 12 13 11 11 12 12 9 10 9 12 11 11 11 11 12 9 11 10 10
8 8 8 7 9 11 10 3 5 5 4 5 5 6 7 9 9 10 10 12 10 11 12 11 11 11 11 13 12 12 11 10 7 11 11 11 12 10 11 10 11 12 11 10
8 8 8 8 9 10 8 5 5 4 4 5 5 6 8 9 9 9 10 11 10 9 11 11 11 10 11 12 11 12 10 9 10 12 11 10 12 11 11 11 11 10 10 12
7 9 8 8 9 9 7 6 6 5 4 5 7 7 8 9 9 11 10 9 10 10 10 9 9 9 8 9 11 10 11 8 8 9 9 11 11 13 12 12 12 10 11 11
8 9 9 8 8 9 10 8 7 5 6 5 7 8 8 9 8 9 9 9 10 11 7 8 9 8 9 11 12 9 10 9 7 7 9 10 12 11 12 12 13 12 12 10
9 8 9 8 9 9 10 9 7 4 5 5 7 8 9 8 8 9 10 10 9 7 9 10 10 9 11 12 12 11 9 8 10 8 7 11 12 11 11 12 13 12 11 10
9 8 8 8 9 9 10 9 8 6 5 5 8 7 8 7 7 7 10 9 9 9 8 8 11 10 11 11 9 11 9 8 9 7 9 12 12 12 12 13 11 11 10 9
8 8 8 7 7 7 8 9 8 7 4 4 5 6 7 6 6 6 6 8 8 8 7 9 8 9 10 9 10 10 9 8 9 9 7 9 10 11 12 12 12 10 10 9
8 8 8 8 7 7 7 8 7 7 3 3 4 5 5 5 5 7 7 8 8 7 8 8 8 7 7 8 9 11 9 8 8 7 8 9 10 11 12 11 10 10 9 8
8 8 8 8 8 8 7 7 7 7 5 4 5 6 7 6 7 5 4 8 6 6 5 5 5 8 6 6 8 7 9 8 9 8 9 10 9 10 10 9 10 11 9 8
8 8 8 8 8 8 7 7 7 7 3 3 3 4 7 7 6 5 6 4 6 5 5 5 6 8 5 7 6 8 8 7 8 10 10 8 8 8 8 9 9 10 9 8
8 7 8 8 8 8 8 7 7 7 4 3 5 5 6 6 7 6 5 4 5 4 3 5 5 7 6 6 8 7 8 7 7 7 7 7 8 7 8 9 8 9 8 7
7 7 8 8 8 8 8 7 7 7 6 4 4 4 5 5 6 5 5 5 4 3 4 5 6 5 5 4 3 3 5 7 8 9 9 10 9 10 8 7 8 7 7 8
7 7 7 7 8 8 8 4 7 7 6 2 3 3 4 4 4 4 3 3 3 2 3 4 3 3 6 5 5 6 5 6 8 9 8 7 9 7 8 7 7 7 6 6
7 7 7 8 8 8 7 6 8 7 6 2 2 1 3 4 4 2 2 3 2 2 2 3 3 4 5 4 5 9 7 6 6 6 7 7 7 9 8 6 7 8 7 7
6 6 7 7 7 7 7 7 7 7 6 3 -0 1 2 3 2 3 0 2 1 2 3 2 3 3 2 4 6 6 6 6 5 5 5 8 7 7 6 6 5 5 5 5
6 6 6 6 6 6 6 6 5 6 5 2 1 1 2 1 1 1 1 1 3 1 3 3 3 4 4 7 6 6 6 7 7 7 6 4 4 6 6 5 4 5 5 4
5 5 6 5 5 5 6 4 3 2 2 2 2 1 2 2 1 2 2 2 4 1 3 1 3 4 5 5 6 5 4 4 4 4 5 4 4 4 5 4 5 6 6 5
5 4 4 3 4 5 3 2 2 2 3 2 2 1 1 1 3 4 3 2 1 1 3 3 2 2 3 5 5 4 3 2 2 2 4 5 5 5 5 4 4 4 4 4
5 5 4 4 3 1 2 1 2 2 4 2 2 1 2 1 1 4 1 2 1 2 1 1 1 3 4 4 4 3 2 1 1 1 2 2 3 5 5 4 4 3 5 5
4 3 2 3 2 2 3 1 1 3 3 1 1 1 1 0 1 2 2 2 3 2 1 3 3 4 4 3 2 2 1 1 1 1 2 2 2 4 4 4 4 5 4 5
3 3 3 3 2 2 3 3 4 4 2 1 1 0 2 1 2 2 1 3 2 1 2 2 2 3 5 3 1 1 2 1 0 1 1 2 2 2 4 4 5 4 2 4
3 3 5 3 2 -1 -0 0 2 1 3 2 2 1 2 0 0 2 1 1 2 2 3 2 0 3 3 3 2 1 0 -0 -0 0 1 1 2 2 2 4 4 3 3 3
3 3 3 1 1 -1 2 1 2 1 3 2 2 2 2 2 1 2 1 2 3 5 0 -0 -2 2 3 2 1 0 -0 -0 -0 0 0 1 1 1 2 2 2 2 3 2
3 3 2 3 0 4 2 2 2 3 4 3 2 3 5 0 -1 1 2 3 4 0 -1 -2 1 3 3 1 1 1 0 0 1 1 1 1 1 2 1 0 1 2 2 2